Date String (YYYY-MM-DD hh:mm:ss) UTC,Instrument flags,Ambient pressure (hPa),Sample flow (lpm),Bypass flow (lpm),Sample temperature (°C),Ambient temperature (°C),ASC tube jacket temperature (°C),LED temperature (°C),Box temperature (°C),Sample RH (%),Span deviation,Mass concentration (μg/m³),Mass concentration (μg/m³),Mass concentration (μg/m³)
DateTimeUTC,F1_M11,P_M11,Q1_M11,Q2_M11,T1_M11,T2_M11,T3_M11,T4_M11,T5_M11,U1_M11,ZSPAN_M11,X0_M11,X2_M11,X1_M11
2023-02-18 03:00:00,,0826.3,5.00,0.00,24.5,22.9,00.0,33.3,26.3,05.7,0000.0,0003.88,0001.98,0001.57
2023-02-18 03:01:00,,0826.2,5.02,0.00,24.5,22.9,00.0,33.3,26.3,05.7,0000.0,0003.43,0001.61,0001.25
2023-02-18 03:02:00,,0826.2,4.98,0.00,24.5,22.8,00.0,33.3,26.3,05.6,0000.0,0002.93,0001.31,0000.98
2023-02-18 03:03:00,,0826.2,4.98,0.00,24.5,22.8,00.0,33.3,26.3,05.4,0000.0,0002.64,0001.13,0000.83
2023-02-18 03:04:00,,0826.2,5.02,0.00,24.4,22.8,00.0,33.3,26.2,05.1,0000.0,0002.59,0001.08,0000.76
2023-02-18 03:05:00,,0826.2,5.02,0.00,24.4,22.7,00.0,33.3,26.2,04.5,0000.0,0002.49,0001.03,0000.71
2023-02-18 03:06:00,,0826.2,4.99,0.00,24.4,22.7,00.0,33.3,26.1,04.5,0000.0,0002.44,0001.00,0000.69
2023-02-18 03:07:00,,0826.1,5.00,0.00,24.4,22.7,00.0,33.3,26.1,04.7,0000.0,0002.42,0000.97,0000.66
2023-02-18 03:08:00,,0826.2,4.97,0.00,24.4,22.7,00.0,33.3,26.1,04.7,0000.0,0002.07,0000.91,0000.63
2023-02-18 03:09:00,,0826.2,4.97,0.00,24.4,22.6,00.0,33.3,26.1,04.7,0000.0,0001.64,0000.87,0000.60
2023-02-18 03:10:00,,0826.2,5.01,0.00,24.4,22.6,00.0,33.3,26.1,05.1,0000.0,0001.52,0000.82,0000.57
2023-02-18 03:11:00,,0826.2,4.99,0.00,24.3,22.5,00.0,33.3,26.0,04.9,0000.0,0001.34,0000.78,0000.55
2023-02-18 03:12:00,,0826.1,5.00,0.00,24.3,22.5,00.0,33.3,26.1,04.8,0000.0,0001.21,0000.72,0000.52
2023-02-18 03:13:00,,0826.1,5.01,0.00,24.3,22.4,00.0,33.3,26.0,04.8,0000.0,0001.15,0000.67,0000.50
2023-02-18 03:14:00,,0826.0,4.99,0.00,24.3,22.3,00.0,33.3,26.0,04.7,0000.0,0001.14,0000.64,0000.48
2023-02-18 03:15:00,,0826.0,4.99,0.00,24.3,22.3,00.0,33.2,26.0,04.6,0000.0,0001.10,0000.62,0000.47
2023-02-18 03:16:00,,0826.0,5.00,0.00,24.2,22.3,00.0,33.2,25.9,05.0,0000.0,0001.06,0000.60,0000.48
2023-02-18 03:17:00,,0826.0,5.00,0.00,24.2,22.2,00.0,33.2,25.9,04.7,0000.0,0001.20,0000.61,0000.47
2023-02-18 03:18:00,,0826.1,5.02,0.00,24.2,22.2,00.0,33.2,25.9,04.8,0000.0,0001.23,0000.63,0000.48
2023-02-18 03:19:00,,0826.1,4.96,0.00,24.2,22.2,00.0,33.2,25.8,05.2,0000.0,0001.22,0000.63,0000.48
2023-02-18 03:20:00,,0826.1,4.98,0.00,24.1,22.1,00.0,33.2,25.7,04.8,0000.0,0001.19,0000.62,0000.49
2023-02-18 03:21:00,,0826.1,5.01,0.00,24.1,22.1,00.0,33.1,25.7,04.5,0000.0,0002.08,0000.62,0000.48
2023-02-18 03:22:00,,0826.1,5.00,0.00,24.1,22.1,00.0,33.1,25.7,04.6,0000.0,0002.31,0000.61,0000.48
2023-02-18 03:23:00,,0826.0,5.00,0.00,24.0,22.0,00.0,33.1,25.7,04.5,0000.0,0002.34,0000.62,0000.47
2023-02-18 03:24:00,,0826.0,4.97,0.00,24.0,22.0,00.0,33.1,25.7,04.4,0000.0,0002.30,0000.60,0000.46
2023-02-18 03:25:00,,0826.0,4.98,0.00,24.0,22.0,00.0,33.0,25.6,04.6,0000.0,0002.30,0000.61,0000.47
2023-02-18 03:26:00,,0826.0,5.00,0.00,24.0,22.0,00.0,33.0,25.6,04.7,0000.0,0002.29,0000.60,0000.47
2023-02-18 03:27:00,,0826.0,5.01,0.00,24.0,22.0,00.0,33.0,25.6,04.7,0000.0,0002.67,0000.62,0000.47
2023-02-18 03:28:00,,0826.0,5.01,0.00,24.0,22.0,00.0,33.0,25.6,04.7,0000.0,0003.05,0000.61,0000.47
2023-02-18 03:29:00,,0826.0,5.01,0.00,23.9,22.0,00.0,33.0,25.6,04.5,0000.0,0002.97,0000.57,0000.45
2023-02-18 03:30:00,,0826.0,5.03,0.00,23.9,22.0,00.0,33.0,25.6,04.7,0000.0,0002.98,0000.57,0000.44
2023-02-18 03:31:00,,0826.0,5.00,0.00,23.9,22.0,00.0,32.9,25.5,04.7,0000.0,0003.01,0000.58,0000.45
2023-02-18 03:32:00,,0826.0,5.00,0.00,23.9,21.9,00.0,32.9,25.5,04.8,0000.0,0002.23,0000.58,0000.45
2023-02-18 03:33:00,,0826.1,5.01,0.00,23.8,21.8,00.0,32.9,25.5,04.5,0000.0,0001.78,0000.57,0000.44
2023-02-18 03:34:00,,0826.2,5.01,0.00,23.8,21.8,00.0,32.9,25.5,04.6,0000.0,0001.79,0000.57,0000.44
2023-02-18 03:35:00,,0826.2,4.99,0.00,23.8,21.8,00.0,32.8,25.5,04.5,0000.0,0001.80,0000.58,0000.44
2023-02-18 03:36:00,,0826.1,5.00,0.00,23.8,21.8,00.0,32.8,25.4,04.6,0000.0,0001.75,0000.56,0000.43
2023-02-18 03:37:00,,0826.1,5.00,0.00,23.8,21.8,00.0,32.8,25.4,04.9,0000.0,0001.81,0000.58,0000.42
2023-02-18 03:38:00,,0826.2,4.98,0.00,23.8,21.8,00.0,32.8,25.4,04.8,0000.0,0001.59,0000.57,0000.43
2023-02-18 03:39:00,,0826.2,4.98,0.00,23.7,21.8,00.0,32.8,25.4,04.9,0000.0,0001.02,0000.58,0000.44
2023-02-18 03:40:00,,0826.2,5.02,0.00,23.7,21.8,00.0,32.7,25.4,05.0,0000.0,0001.04,0000.59,0000.45
2023-02-18 03:41:00,,0826.1,4.99,0.00,23.7,21.9,00.0,32.7,25.4,04.8,0000.0,0001.03,0000.59,0000.44
2023-02-18 03:42:00,,0826.1,4.97,0.00,23.7,21.9,00.0,32.7,25.4,04.9,0000.0,0001.02,0000.58,0000.44
2023-02-18 03:43:00,,0826.1,5.01,0.00,23.7,21.9,00.0,32.7,25.4,05.0,0000.0,0000.99,0000.58,0000.44
2023-02-18 03:44:00,,0826.1,5.00,0.00,23.7,22.0,00.0,32.7,25.4,04.7,0000.0,0001.06,0000.60,0000.44
2023-02-18 03:45:00,,0826.0,4.99,0.00,23.7,21.9,00.0,32.7,25.4,04.9,0000.0,0001.51,0000.63,0000.45
2023-02-18 03:46:00,,0826.0,5.00,0.00,23.7,21.9,00.0,32.7,25.4,05.1,0000.0,0001.67,0000.63,0000.45
2023-02-18 03:47:00,,0826.1,4.99,0.00,23.7,22.0,00.0,32.7,25.4,05.3,0000.0,0001.70,0000.65,0000.47
2023-02-18 03:48:00,,0826.2,5.01,0.00,23.7,21.9,00.0,32.7,25.4,05.5,0000.0,0001.63,0000.64,0000.48
2023-02-18 03:49:00,,0826.1,4.98,0.00,23.7,21.9,00.0,32.6,25.4,05.5,0000.0,0001.65,0000.65,0000.49
2023-02-18 03:50:00,,0826.2,5.04,0.00,23.7,21.9,00.0,32.6,25.3,05.6,0000.0,0001.54,0000.65,0000.50
2023-02-18 03:51:00,,0826.1,4.98,0.00,23.6,22.0,00.0,32.6,25.3,05.8,0000.0,0001.59,0000.68,0000.51
2023-02-18 03:52:00,,0826.1,4.99,0.00,23.6,21.9,00.0,32.6,25.3,05.8,0000.0,0001.64,0000.72,0000.54
2023-02-18 03:53:00,,0826.0,5.00,0.00,23.6,21.9,00.0,32.6,25.3,05.9,0000.0,0001.65,0000.74,0000.55
2023-02-18 03:54:00,,0826.0,4.99,0.00,23.6,21.8,00.0,32.6,25.3,05.9,0000.0,0001.77,0000.77,0000.56
2023-02-18 03:55:00,,0826.1,5.00,0.00,23.6,21.8,00.0,32.6,25.2,06.2,0000.0,0001.76,0000.77,0000.57
2023-02-18 03:56:00,,0826.0,5.03,0.00,23.6,21.8,00.0,32.6,25.2,06.2,0000.0,0001.36,0000.73,0000.57
2023-02-18 03:57:00,,0826.0,4.99,0.00,23.6,21.8,00.0,32.5,25.2,06.3,0000.0,0001.06,0000.73,0000.58
2023-02-18 03:58:00,,0825.9,5.03,0.00,23.6,21.7,00.0,32.5,25.2,06.4,0000.0,0001.09,0000.74,0000.58
2023-02-18 03:59:00,,0826.0,4.99,0.00,23.5,21.6,00.0,32.5,25.2,06.0,0000.0,0001.31,0000.75,0000.57
